Location: Unspecified
(0.0000°N, 0.0000°E)
Time: 08:07:19
(UTC+00:00)

MSX - Visible Passes

Search period start: 25 April 2019 00:00
Search period end: 05 May 2019 00:00
Orbit: 895 x 905 km, 98.7° (Epoch: 24 April)

Date Brightness Start Highest point End Pass type
(mag) Time Alt. Az. Time Alt. Az. Time Alt. Az.
25 Apr 3.8 03:58:28 10° NNE 04:04:13 81° ESE 04:05:51 49° S visible
26 Apr 3.7 04:01:12 10° NNE 04:06:57 87° ESE 04:08:39 48° S visible
27 Apr 3.7 04:03:56 10° NNE 04:09:40 88° WNW 04:11:26 47° SSW visible
28 Apr 3.7 04:06:41 10° N 04:12:24 82° WNW 04:14:13 46° SSW visible
29 Apr 3.7 04:09:25 10° N 04:15:09 76° WNW 04:17:00 45° SSW visible
30 Apr 3.7 04:12:12 10° N 04:17:53 71° WNW 04:19:47 43° SSW visible
01 May 3.7 04:14:56 10° N 04:20:37 66° WNW 04:22:34 41° SW visible
02 May 3.8 04:17:43 10° N 04:23:21 61° WNW 04:25:21 39° SW visible
03 May 3.8 04:20:30 10° N 04:26:05 56° WNW 04:28:07 37° SW visible
04 May 6.5 02:46:06 10° E 02:47:26 11° ESE 02:47:50 11° ESE visible
04 May 3.9 04:23:17 10° N 04:28:49 52° WNW 04:30:54 35° SW visible
